Flag for Poland Weather past 2 weeks in Płock, Poland

Now
50 °F

Fog.


Feels Like: 50 °F
Forecast: 48 / 73 °F
Wind: 2 mph from East

Location: Plock


UV Index: 3 (Moderate)

Visibility: 4 mi


Pressure: 29.92 "Hg

Humidity: 93%

Dew point: 48 °F

Location of PłockLocation

Historic Weather in Płock

°F

Płock temperature yesterday

Maximum temperature yesterday: 65 °F (at 2:00 PM)
Minimum temperature yesterday: 53 °F (at 8:00 PM)
Average temperature yesterday: 56 °F

Past Weeks' High & Low Weather Summary

 TemperatureHumidityPressure
High71 °F (Apr 8, 1:00 PM)98% (Apr 11, 6:00 AM)30.41 "Hg (Apr 11, 6:00 AM)
Low28 °F (Apr 17, 6:00 AM)32% (Apr 17, 5:00 PM)29.60 "Hg (Apr 14, 4:00 PM)
Average49 °F75%29.99 "Hg
* Reported Apr 6 5:00 AM — Apr 21 5:00 AM, Płock, Weather by CustomWeather, © 2014

Note: Actual official high and low records may vary slightly from our data, if they occured in-between our weather recording intervals... More about our weather records

Advertising

Historic Weather Conditions — Data for Previous 24 hours

 ConditionsComfort  
Time TempWeatherWind HumidityBarometerVisibility
5:00 AM
Apr 21
52 °FFog.3 mph94%29.92 "Hg4 mi
4:00 AM52 °FFog.3 mph93%29.92 "Hg5 mi
3:00 AM52 °FFog.3 mph94%29.93 "Hg5 mi
2:00 AM51 °FFog.3 mph94%29.93 "Hg5 mi
1:00 AM52 °FFog.3 mph94%29.94 "Hg5 mi
12:00 AM54 °FPassing clouds.5 mph93%29.93 "Hg6 mi
11:00 PM
Apr 20
54 °FOvercast.6 mph92%29.93 "Hg6 mi
10:00 PM53 °FOvercast.5 mph95%29.92 "Hg6 mi
9:00 PM53 °FLight rain. Overcast.3 mph94%29.93 "Hg6 mi
8:00 PM53 °FLight rain. Overcast.2 mph94%29.93 "Hg6 mi
7:00 PM54 °FRain. Overcast.3 mph92%29.93 "Hg3 mi
6:00 PM55 °FLight rain. Overcast.2 mph92%29.93 "Hg5 mi
5:00 PM55 °FSprinkles. Overcast.2 mph90%29.94 "Hg7 mi
4:00 PM55 °FRain. Overcast.3 mph89%29.96 "Hg6 mi
3:00 PM56 °FThundershowers. Overcast.3 mph83%29.97 "Hg14 mi
2:00 PM65 °FOvercast.3 mph58%29.96 "Hg14 mi
1:00 PM64 °FOvercast.3 mph57%29.97 "Hg12 mi
12:00 PM62 °FOvercast.5 mph61%29.99 "Hg12 mi
11:00 AM62 °FOvercast.5 mph62%30.00 "Hg12 mi
10:00 AM60 °FPassing clouds.5 mph67%30.01 "Hg16 mi
9:00 AM58 °FPassing clouds.6 mph69%30.01 "Hg14 mi
8:00 AM56 °FScattered clouds.6 mph72%30.01 "Hg16 mi
7:00 AM55 °FPartly sunny.2 mph80%30.01 "Hg9 mi
6:00 AM54 °FOvercast.2 mph82%30.00 "Hg12 mi
Weather by CustomWeather, © 2014

See weather overview